Location: Slidell
(30.2789°N, 89.7378°W)
Time: 00:17:46
(UTC-05:00)

Cosmos 2360 Rocket - Visible Passes

Search period start: 25 May 2016 00:00
Search period end: 04 June 2016 00:00
Orbit: 836 x 844 km, 71.0° (Epoch: 24 May)

Date Brightness Start Highest point End Pass type
(mag) Time Alt. Az. Time Alt. Az. Time Alt. Az.
25 May 5.2 03:27:23 10° NNE 03:29:35 12° ENE 03:31:48 10° E visible
25 May 2.1 05:08:29 10° NNW 05:14:06 73° WSW 05:19:42 10° SSE visible
26 May 5.2 03:12:10 10° NE 03:13:53 11° ENE 03:15:36 10° ENE visible
26 May 2.1 04:52:49 10° NNW 04:58:27 79° WSW 05:04:04 10° SSE visible
27 May 5.3 02:57:14 10° NE 02:58:10 10° NE 02:59:06 10° ENE visible
27 May 2.1 04:37:09 10° NNW 04:42:48 85° WSW 04:48:25 10° SSE visible
28 May 2.1 04:21:29 10° NNW 04:27:09 89° ENE 04:32:47 10° SSE visible
29 May 2.2 04:05:50 10° NNW 04:11:29 83° ENE 04:17:07 10° SSE visible
30 May 2.2 03:50:11 10° NNW 03:55:50 78° ENE 04:01:27 10° SSE visible
31 May 2.3 03:34:32 10° NNW 03:40:10 72° ENE 03:44:09 20° SSE visible
31 May 4.0 05:22:36 10° W 05:23:26 10° W 05:24:16 10° WSW visible
01 Jun 2.4 03:18:54 10° NNW 03:24:30 67° ENE 03:26:51 35° SE visible
01 Jun 3.9 05:06:04 10° W 05:07:49 11° W 05:08:30 11° WSW visible
02 Jun 2.5 03:03:16 10° NNW 03:08:51 62° ENE 03:10:04 50° ESE visible
02 Jun 4.0 04:49:54 10° WNW 04:51:44 12° W 04:51:44 12° W visible
03 Jun 2.6 02:47:38 10° N 02:53:11 57° ENE 02:53:34 56° E visible
03 Jun 4.0 04:33:52 10° WNW 04:35:16 13° W 04:35:16 13° W visible
